Flag for South Korea Weather past 2 weeks in Incheon, South Korea

64 °F

Passing clouds.

Feels Like: 64 °F
Forecast: 52 / 69 °F
Wind: 7 mph from West

Location: Incheon International Airport

Current Time: Oct 13, 2015 at 7:05:40 PM

Latest Report: Oct 13, 2015 at 6:30 PM

Visibility: N/A

Pressure: 30.07 "Hg

Humidity: 64%

Dew point: 52 °F

Location of IncheonLocation

Historic Weather in Incheon — Graph


Incheon temperature yesterday

Maximum temperature yesterday: 63 °F (at 2:00 PM)
Minimum temperature yesterday: 52 °F (at 2:30 AM)
Average temperature yesterday: 57 °F

Past Weeks' High & Low Weather Summary

High79 °F (Sep 29, 2:30 PM)94% (Oct 1, 10:00 AM)30.36 "Hg (Oct 1, 10:00 AM)
Low48 °F (Oct 11, 1:00 AM)16% (Oct 9, 11:00 AM)29.36 "Hg (Oct 1, 12:30 PM)
Average63 °F53%30.02 "Hg
* Reported Sep 28 6:00 PM — Oct 13 6:00 PM, Incheon, Weather by CustomWeather, © 2015

Note: Actual official high and low records may vary slightly from our data, if they occured in-between our weather recording intervals... More about our weather records


Incheon weather history for previous 24 hours

Time TempWeatherWind HumidityBarometerVisibility
6:00 PM
Tue, Oct 13
64 °FSunny.9 mph64%30.07 "Hg10 mi
5:30 PM66 °FPassing clouds.14 mph56%30.07 "HgN/A
5:00 PM66 °FSunny.14 mph52%30.09 "Hg10 mi
4:30 PM68 °FSunny.15 mph49%30.09 "Hg10 mi
4:00 PM68 °FSunny.15 mph49%30.09 "Hg10 mi
3:30 PM68 °FPassing clouds.16 mph49%30.09 "HgN/A
3:00 PM68 °FPassing clouds.16 mph49%30.09 "HgN/A
2:30 PM68 °FPassing clouds.14 mph49%30.09 "HgN/A
2:00 PM68 °FPassing clouds.14 mph46%30.12 "HgN/A
1:30 PM68 °FPassing clouds.14 mph40%30.12 "HgN/A
12:30 PM68 °FPassing clouds.14 mph40%30.12 "HgN/A
12:00 PM68 °FSunny.13 mph38%30.15 "Hg10 mi
11:30 AM66 °FPassing clouds.12 mph43%30.15 "HgN/A
11:00 AM66 °FPassing clouds.13 mph43%30.15 "HgN/A
10:30 AM66 °FPassing clouds.13 mph43%30.15 "HgN/A
10:00 AM66 °FSunny.13 mph40%30.15 "Hg10 mi
9:30 AM64 °FSunny.12 mph46%30.15 "Hg10 mi
9:00 AM64 °FSunny.12 mph49%30.15 "Hg10 mi
8:30 AM63 °FSunny.9 mph52%30.15 "Hg10 mi
8:00 AM59 °FSunny.5 mph59%30.12 "Hg10 mi
7:30 AM54 °FClear.1 mph67%30.12 "Hg10 mi
7:00 AM54 °FClear.2 mph63%30.12 "Hg10 mi
6:30 AM50 °FPassing clouds.3 mph76%30.12 "HgN/A
6:00 AM50 °FClear.2 mph76%30.12 "Hg10 mi
5:30 AM52 °FClear.3 mph72%30.12 "Hg10 mi
5:00 AM50 °FClear.1 mph76%30.12 "Hg10 mi
4:30 AM48 °FClear.2 mph82%30.09 "Hg10 mi
4:00 AM50 °FClear.3 mph76%30.12 "Hg10 mi
3:30 AM50 °FClear.1 mph76%30.12 "Hg10 mi
3:00 AM52 °FClear.No wind72%30.12 "Hg10 mi
2:30 AM52 °FClear.No wind77%30.12 "Hg10 mi
2:00 AM54 °FClear.1 mph72%30.12 "Hg10 mi
1:30 AM54 °FClear.2 mph72%30.12 "Hg10 mi
1:00 AM54 °FClear.2 mph72%30.12 "Hg10 mi
12:30 AM55 °FClear.3 mph63%30.12 "Hg10 mi
12:00 AM54 °FClear.3 mph67%30.12 "Hg10 mi
11:30 PM
Mon, Oct 12
55 °FClear.9 mph63%30.12 "Hg10 mi
11:00 PM55 °FClear.9 mph63%30.12 "Hg10 mi
10:30 PM57 °FClear.13 mph59%30.09 "Hg10 mi
10:00 PM57 °FClear.13 mph59%30.09 "Hg10 mi
9:30 PM57 °FPassing clouds.14 mph55%30.09 "HgN/A
9:00 PM57 °FPassing clouds.14 mph51%30.09 "HgN/A
8:30 PM59 °FPassing clouds.15 mph45%30.07 "HgN/A
8:00 PM59 °FPassing clouds.15 mph45%30.07 "HgN/A
7:30 PM59 °FPassing clouds.15 mph48%30.07 "HgN/A
7:00 PM59 °FScattered clouds.14 mph45%30.07 "HgN/A
Weather by CustomWeather, © 2015

See weather overviewHow to use our weather pages